DW9837 Weather Reports


Display with metric or nautical units.
time (UTC)temp
F
wind
direction
speed
MPH
gust
MPH
rain 1hr
in
rain 24hr
in
rain mn
in
humidity
%
barometer
mb
20260902220017 70 79 1.0 5.0 0.00 0.01 0.00 69 1020.1
20260902214516 70 129 1.0 5.0 0.00 0.01 0.00 69 1019.7
20260902213014 70 113 2.0 6.0 0.00 0.01 0.00 68 1019.6
20260902211513 70 167 1.0 5.0 0.00 0.01 0.00 70 1019.4
20260902210012 71 16 1.0 5.0 0.00 0.01 0.00 69 1019.7
20260902204520 71 98 3.0 8.0 0.00 0.02 0.00 67 1020.1
20260902203011 71 158 1.0 5.0 0.00 0.02 0.00 67 1020.3
20260902201519 71 141 2.0 6.0 0.00 0.02 0.00 66 1020.0
20260902200008 71 117 1.0 8.0 0.00 0.02 0.00 66 1020.1
20260902194510 72 199 0.0 6.0 0.00 0.02 0.00 61 1020.4
20260902193008 74 137 3.0 8.0 0.00 0.02 0.00 56 1020.7
20260902191513 74 129 2.0 8.0 0.00 0.02 0.00 58 1020.5
20260902190106 74 105 2.0 9.0 0.00 0.02 0.00 56 1020.6
20260902184504 75 196 2.0 8.0 0.00 0.02 0.00 56 1020.6
20260902183003 76 163 2.0 8.0 0.00 0.02 0.00 53 1020.7
20260902181615 74 26 2.0 8.0 0.00 0.02 0.00 58 1020.7
20260902174559 74 187 1.0 5.0 0.00 0.02 0.00 59 1020.8
20260902173056 73 142 4.0 8.0 0.00 0.02 0.00 57 1020.8
20260902171607 73 180 3.0 9.0 0.00 0.02 0.00 58 1020.8
20260902170055 73 38 1.0 6.0 0.00 0.02 0.00 59 1020.8
20260902164558 73 187 3.0 7.0 0.00 0.02 0.00 58 1020.8
20260902163052 73 170 1.0 7.0 0.00 0.02 0.00 58 1020.9
20260902161559 74 198 1.0 8.0 0.00 0.02 0.00 58 1021.3
20260902160049 74 199 3.0 6.0 0.00 0.02 0.00 57 1021.2
20260902154600 74 97 1.0 4.0 0.00 0.02 0.00 62 1021.3
20260902153045 74 99 1.0 3.0 0.00 0.02 0.00 63 1021.4
20260902151540 73 170 1.0 4.0 0.00 0.02 0.00 66 1021.3
20260902150036 73 130 2.0 5.0 0.00 0.02 0.00 67 1021.1
20260902144535 71 187 2.0 5.0 0.00 0.12 0.00 71 1021.2
20260902143029 70 111 2.0 8.0 0.00 0.12 0.00 71 1021.3
20260902141527 68 118 2.0 5.0 0.00 0.12 0.00 75 1021.0
20260902140032 68 88 1.0 5.0 0.00 0.12 0.00 77 1020.8
20260902134520 67 84 2.0 5.0 0.00 0.14 0.00 79 1020.7
20260902133018 67 128 1.0 5.0 0.00 0.14 0.00 83 1020.5
20260902131516 66 96 1.0 5.0 0.00 0.14 0.00 84 1020.6
20260902130013 66 90 1.0 6.0 0.00 0.14 0.00 85 1020.6
20260902124516 65 54 0.0 5.0 0.00 0.14 0.00 87 1020.7
20260902123009 65 75 0.0 3.0 0.00 0.14 0.00 87 1020.8
20260902121622 65 89 0.0 2.0 0.00 0.14 0.00 88 1020.8
20260902120107 64 12 1.0 5.0 0.00 0.14 0.00 88 1020.9
20260902114503 63 48 0.0 1.0 0.00 0.14 0.00 90 1020.8
20260902113059 63 75 0.0 3.0 0.00 0.14 0.00 91 1020.6
20260902111559 63 103 2.0 7.0 0.00 0.14 0.00 91 1020.6
20260902110055 62 102 0.0 2.0 0.00 0.14 0.00 91 1020.4
20260902104557 62 107 0.0 2.0 0.00 0.14 0.00 91 1020.4
20260902103100 62 107 0.0 3.0 0.00 0.14 0.00 92 1020.4
20260902101558 62 101 0.0 5.0 0.00 0.14 0.00 92 1020.4
20260902100052 61 97 0.0 1.0 0.00 0.14 0.00 92 1020.3
20260902094552 61 97 0.0 1.0 0.00 0.14 0.00 92 1020.1
20260902093116 61 79 0.0 2.0 0.00 0.14 0.00 92 1019.8
20260902091553 61 52 0.0 1.0 0.00 0.14 0.00 92 1019.6
20260902090055 62 19 0.0 1.0 0.00 0.14 0.00 92 1019.6
20260902084553 62 44 0.0 3.0 0.00 0.14 0.00 92 1019.4
20260902083050 61 85 0.0 3.0 0.00 0.14 0.00 92 1019.5
20260902081600 61 90 0.0 3.0 0.00 0.14 0.00 92 1019.6
20260902080043 61 65 0.0 5.0 0.00 0.14 0.00 93 1019.5
20260902074541 61 104 1.0 4.0 0.00 0.14 0.00 93 1019.4
20260902073039 61 345 0.0 5.0 0.00 0.14 0.00 93 1019.4
20260902071538 61 94 0.0 3.0 0.00 0.14 0.00 93 1019.2
20260902070036 61 79 0.0 2.0 0.00 0.14 0.00 93 1019.2
20260902064537 61 104 0.0 4.0 0.00 0.14 0.00 93 1019.1
20260902063035 62 90 1.0 3.0 0.00 0.14 0.00 92 1019.0
20260902061545 62 68 0.0 4.0 0.00 0.14 0.00 92 1019.3
20260902060032 62 9 0.0 3.0 0.00 0.14 0.00 92 1019.2
20260902054534 62 85 0.0 2.0 0.00 0.14 0.00 92 1019.2
20260902053030 62 67 0.0 1.0 0.00 0.14 0.00 92 1019.2
20260902051528 62 97 1.0 4.0 0.00 0.14 0.00 92 1018.9
20260902050028 62 109 0.0 2.0 0.00 0.14 0.00 93 1019.2
20260902044525 62 23 0.0 7.0 0.00 0.14 0.00 93 1018.9
20260902043024 62 101 0.0 5.0 0.00 0.14 0.00 93 1018.6
20260902041523 62 80 0.0 5.0 0.00 0.14 0.00 94 1018.6
20260902040020 62 80 0.0 2.0 0.00 0.14 0.00 94 1018.6
20260902034519 62 77 0.0 3.0 0.00 0.14 0.14 94 1018.7
20260902033019 62 85 1.0 3.0 0.00 0.14 0.14 94 1018.7
20260902031518 62 114 1.0 5.0 0.00 0.14 0.14 94 1018.8
20260902030016 62 66 0.0 3.0 0.00 0.14 0.14 95 1018.6
20260902024520 62 101 0.0 7.0 0.00 0.14 0.14 95 1018.4
20260902023014 62 99 2.0 6.0 0.01 0.14 0.14 95 1018.4
20260902021514 62 92 0.0 3.0 0.01 0.14 0.14 95 1018.3
20260902020020 62 20 0.0 5.0 0.01 0.14 0.14 95 1017.9
20260902014514 62 85 2.0 7.0 0.01 0.14 0.14 95 1017.6
20260902013012 62 77 1.0 7.0 0.00 0.13 0.13 95 1017.4
20260902011512 62 114 2.0 6.0 0.00 0.13 0.13 94 1017.3
20260902010017 62 112 0.0 6.0 0.00 0.13 0.13 93 1017.0
20260902004510 62 116 0.0 3.0 0.00 0.13 0.13 93 1017.3
20260902003010 62 98 2.0 8.0 0.00 0.13 0.13 93 1017.5
20260902001509 62 90 0.0 5.0 0.00 0.13 0.13 93 1017.3
20260902000008 62 98 1.0 6.0 0.00 0.13 0.13 93 1017.3
20260901234507 62 74 2.0 9.0 0.00 0.13 0.13 93 1017.1
20260901233011 62 116 1.0 7.0 0.00 0.13 0.13 92 1017.1
20260901231503 62 114 2.0 7.0 0.00 0.13 0.13 92 1017.0
20260901230002 63 170 3.0 10.0 0.00 0.13 0.13 92 1017.0
20260901224502 63 327 1.0 6.0 0.00 0.13 0.13 91 1016.8
20260901223000 63 85 3.0 7.0 0.00 0.13 0.13 91 1016.9
20260901221603 63 120 0.0 8.0 0.00 0.13 0.13 91 1016.8
20260901221500 63 121 1.0 8.0 0.00 0.13 0.13 91 1016.8